User: anonymous   Login
Location: Unspecified
(0.0000°N, 0.0000°E)
Time: 14:01:00
(UTC+00:00)
Language:

YUBELEINY 2 - Orbit

View from above orbital plane
View from above orbital plane
View from above satellite
View from above satellite

Ground track
Ground track

The orbit data is extracted from the following two-line orbital elements,

1 38735U 12041C   18050.88106668 +.00000030 +00000-0 +14976-3 0  9994
2 38735 082.4789 169.7562 0016949 206.2056 153.8168 12.42576759252438
Epoch (UTC): 19 February 2018 21:08:44
Eccentricity: 0.0016949
inclination: 82.4789°
perigee height: 1482 km
apogee height: 1509 km
right ascension of ascending node: 169.7562°
argument of perigee: 206.2056°
revolutions per day: 12.42576759
mean anomaly at epoch: 153.8168°
orbit number at epoch: 25243

The dashed part of the orbit path shows where the satellite is in the earth's shadow,  

DLR